Time,TemperatureF,DewpointF,PressureIn,WindDirection,WindDirectionDegrees,WindSpeedMPH,WindSpeedGustMPH,Humidity,HourlyPrecipIn,Conditions,Clouds,dailyrainin,SoftwareType,DateUTC
2013-12-19 00:00:00,24.0,20.7,30.09,NW,304,4.0,11.0,87,0.00,,---,0.00,VWS V14.01,2013-12-19 05:00:00,
2013-12-19 00:02:00,24.0,20.7,30.09,NW,304,4.0,11.0,87,0.00,,---,0.00,VWS V14.01,2013-12-19 05:02:00,
2013-12-19 00:05:00,24.0,20.7,30.09,West,279,10.0,14.0,87,0.00,,---,0.00,VWS V14.01,2013-12-19 05:05:00,
2013-12-19 00:06:00,24.0,20.7,30.09,West,279,10.0,14.0,87,0.00,,---,0.00,VWS V14.01,2013-12-19 05:06:00,
2013-12-19 00:10:00,24.1,20.8,30.09,WNW,295,7.0,13.0,87,0.00,,---,0.00,VWS V14.01,2013-12-19 05:10:00,
2013-12-19 00:11:00,24.1,20.8,30.09,WNW,295,7.0,13.0,87,0.00,,---,0.00,VWS V14.01,2013-12-19 05:11:00,
2013-12-19 00:15:00,24.0,20.7,30.09,West,272,4.0,9.0,87,0.00,,---,0.00,VWS V14.01,2013-12-19 05:15:00,
2013-12-19 00:16:00,24.0,20.7,30.09,West,272,4.0,9.0,87,0.00,,---,0.00,VWS V14.01,2013-12-19 05:16:00,
2013-12-19 00:20:00,24.0,20.7,30.09,West,278,9.0,11.0,87,0.00,,---,0.00,VWS V14.01,2013-12-19 05:20:00,
2013-12-19 00:21:00,24.0,20.7,30.09,West,278,9.0,11.0,87,0.00,,---,0.00,VWS V14.01,2013-12-19 05:21:00,
2013-12-19 00:25:00,24.1,20.8,30.10,WNW,285,6.0,13.0,87,0.00,,---,0.00,VWS V14.01,2013-12-19 05:25:00,
2013-12-19 00:26:00,24.1,20.8,30.10,WNW,285,6.0,13.0,87,0.00,,---,0.00,VWS V14.01,2013-12-19 05:26:00,
2013-12-19 00:30:00,24.1,20.8,30.09,West,271,7.0,11.0,87,0.00,,---,0.00,VWS V14.01,2013-12-19 05:30:00,
2013-12-19 00:31:00,24.1,20.8,30.09,West,271,7.0,11.0,87,0.00,,---,0.00,VWS V14.01,2013-12-19 05:31:00,
2013-12-19 00:35:00,24.1,20.8,30.09,WNW,290,5.0,10.0,87,0.00,,---,0.00,VWS V14.01,2013-12-19 05:35:00,
2013-12-19 00:36:00,24.1,20.8,30.09,WNW,290,5.0,10.0,87,0.00,,---,0.00,VWS V14.01,2013-12-19 05:36:00,
2013-12-19 00:40:00,24.1,20.8,30.10,WNW,282,4.0,10.0,87,0.00,,---,0.00,VWS V14.01,2013-12-19 05:40:00,
2013-12-19 00:41:00,24.1,20.8,30.10,WNW,282,4.0,10.0,87,0.00,,---,0.00,VWS V14.01,2013-12-19 05:41:00,
2013-12-19 00:45:00,24.2,20.9,30.10,West,280,8.0,12.0,87,0.00,,---,0.00,VWS V14.01,2013-12-19 05:45:00,
2013-12-19 00:46:00,24.2,20.9,30.10,West,280,8.0,12.0,87,0.00,,---,0.00,VWS V14.01,2013-12-19 05:46:00,
2013-12-19 00:50:00,24.2,20.6,30.10,West,280,12.0,14.0,86,0.00,,---,0.00,VWS V14.01,2013-12-19 05:50:00,
2013-12-19 00:51:00,24.2,20.6,30.10,West,280,12.0,14.0,86,0.00,,---,0.00,VWS V14.01,2013-12-19 05:51:00,
2013-12-19 00:55:00,24.2,20.6,30.10,WNW,291,6.0,11.0,86,0.00,,---,0.00,VWS V14.01,2013-12-19 05:55:00,
2013-12-19 00:56:00,24.2,20.6,30.10,WNW,291,6.0,11.0,86,0.00,,---,0.00,VWS V14.01,2013-12-19 05:56:00,
2013-12-19 01:00:00,24.3,20.7,30.10,WSW,256,7.0,11.0,86,0.00,,---,0.00,VWS V14.01,2013-12-19 06:00:00,
2013-12-19 01:02:00,24.3,20.7,30.10,WSW,256,7.0,11.0,86,0.00,,---,0.00,VWS V14.01,2013-12-19 06:02:00,
2013-12-19 01:05:00,24.3,20.7,30.10,West,270,5.0,10.0,86,0.00,,---,0.00,VWS V14.01,2013-12-19 06:05:00,
2013-12-19 01:10:00,24.3,20.7,30.10,West,271,4.0,11.0,86,0.00,,---,0.00,VWS V14.01,2013-12-19 06:10:00,
2013-12-19 01:11:00,24.3,20.7,30.10,West,271,4.0,11.0,86,0.00,,---,0.00,VWS V14.01,2013-12-19 06:11:00,
2013-12-19 01:15:00,24.2,20.6,30.10,WSW,257,6.0,8.0,86,0.00,,---,0.00,VWS V14.01,2013-12-19 06:15:00,
2013-12-19 01:16:00,24.2,20.6,30.10,WSW,257,6.0,8.0,86,0.00,,---,0.00,VWS V14.01,2013-12-19 06:16:00,
2013-12-19 01:20:00,24.2,20.6,30.10,West,269,3.0,8.0,86,0.00,,---,0.00,VWS V14.01,2013-12-19 06:20:00,
2013-12-19 01:21:00,24.2,20.6,30.10,West,269,3.0,8.0,86,0.00,,---,0.00,VWS V14.01,2013-12-19 06:21:00,
2013-12-19 01:25:00,24.2,20.6,30.09,WSW,243,3.0,6.0,86,0.00,,---,0.00,VWS V14.01,2013-12-19 06:25:00,
2013-12-19 01:26:00,24.2,20.6,30.09,WSW,243,3.0,6.0,86,0.00,,---,0.00,VWS V14.01,2013-12-19 06:26:00,
2013-12-19 01:30:00,24.2,20.6,30.09,WNW,286,1.0,4.0,86,0.00,,---,0.00,VWS V14.01,2013-12-19 06:30:00,
2013-12-19 01:31:00,24.2,20.6,30.09,WNW,286,1.0,4.0,86,0.00,,---,0.00,VWS V14.01,2013-12-19 06:31:00,
2013-12-19 01:35:00,24.1,20.5,30.10,West,278,2.0,6.0,86,0.00,,---,0.00,VWS V14.01,2013-12-19 06:35:00,
2013-12-19 01:36:00,24.1,20.5,30.10,West,278,2.0,6.0,86,0.00,,---,0.00,VWS V14.01,2013-12-19 06:36:00,
2013-12-19 01:40:00,24.1,20.5,30.10,WSW,252,4.0,7.0,86,0.00,,---,0.00,VWS V14.01,2013-12-19 06:40:00,
2013-12-19 01:41:00,24.1,20.5,30.10,WSW,252,4.0,7.0,86,0.00,,---,0.00,VWS V14.01,2013-12-19 06:41:00,
2013-12-19 01:45:00,24.1,20.2,30.10,WSW,257,4.0,7.0,85,0.00,,---,0.00,VWS V14.01,2013-12-19 06:45:00,
2013-12-19 01:46:00,24.1,20.2,30.10,WSW,257,4.0,7.0,85,0.00,,---,0.00,VWS V14.01,2013-12-19 06:46:00,
2013-12-19 01:50:00,24.1,20.2,30.09,SW,232,3.0,5.0,85,0.00,,---,0.00,VWS V14.01,2013-12-19 06:50:00,
2013-12-19 01:51:00,24.1,20.2,30.09,SW,232,3.0,5.0,85,0.00,,---,0.00,VWS V14.01,2013-12-19 06:51:00,
2013-12-19 01:55:00,24.1,20.2,30.10,WSW,256,2.0,6.0,85,0.00,,---,0.00,VWS V14.01,2013-12-19 06:55:00,
2013-12-19 02:00:00,24.1,20.2,30.10,West,268,4.0,9.0,85,0.00,,---,0.00,VWS V14.01,2013-12-19 07:00:00,
2013-12-19 02:02:00,24.1,20.2,30.10,West,268,4.0,9.0,85,0.00,,---,0.00,VWS V14.01,2013-12-19 07:02:00,
2013-12-19 02:05:00,24.1,20.2,30.10,West,263,6.0,8.0,85,0.00,,---,0.00,VWS V14.01,2013-12-19 07:05:00,
2013-12-19 02:10:00,24.2,20.4,30.10,West,260,3.0,8.0,85,0.00,,---,0.00,VWS V14.01,2013-12-19 07:10:00,
2013-12-19 02:11:00,24.2,20.4,30.10,West,260,3.0,8.0,85,0.00,,---,0.00,VWS V14.01,2013-12-19 07:11:00,
2013-12-19 02:15:00,24.2,20.1,30.10,WSW,253,5.0,12.0,84,0.00,,---,0.00,VWS V14.01,2013-12-19 07:15:00,
2013-12-19 02:16:00,24.2,20.1,30.10,WSW,253,5.0,12.0,84,0.00,,---,0.00,VWS V14.01,2013-12-19 07:16:00,
2013-12-19 02:20:00,24.3,20.2,30.09,SW,219,1.0,9.0,84,0.00,,---,0.00,VWS V14.01,2013-12-19 07:20:00,
2013-12-19 02:21:00,24.3,20.2,30.09,SW,219,1.0,9.0,84,0.00,,---,0.00,VWS V14.01,2013-12-19 07:21:00,
2013-12-19 02:25:00,24.3,20.2,30.10,WNW,288,4.0,7.0,84,0.00,,---,0.00,VWS V14.01,2013-12-19 07:25:00,
2013-12-19 02:26:00,24.3,20.2,30.10,WNW,288,4.0,7.0,84,0.00,,---,0.00,VWS V14.01,2013-12-19 07:26:00,
2013-12-19 02:30:00,24.3,20.2,30.10,West,262,4.0,7.0,84,0.00,,---,0.00,VWS V14.01,2013-12-19 07:30:00,
2013-12-19 02:31:00,24.3,20.2,30.10,West,262,4.0,7.0,84,0.00,,---,0.00,VWS V14.01,2013-12-19 07:31:00,
2013-12-19 02:35:00,24.3,20.2,30.10,WNW,288,3.0,10.0,84,0.00,,---,0.00,VWS V14.01,2013-12-19 07:35:00,
2013-12-19 02:36:00,24.3,20.2,30.10,WNW,288,3.0,10.0,84,0.00,,---,0.00,VWS V14.01,2013-12-19 07:36:00,
2013-12-19 02:40:00,24.4,20.0,30.10,WSW,253,3.0,10.0,83,0.00,,---,0.00,VWS V14.01,2013-12-19 07:40:00,
2013-12-19 02:41:00,24.4,20.0,30.10,WSW,253,3.0,10.0,83,0.00,,---,0.00,VWS V14.01,2013-12-19 07:41:00,
2013-12-19 02:45:00,24.4,20.0,30.11,WNW,295,3.0,9.0,83,0.00,,---,0.00,VWS V14.01,2013-12-19 07:45:00,
2013-12-19 02:46:00,24.4,20.0,30.11,WNW,295,3.0,9.0,83,0.00,,---,0.00,VWS V14.01,2013-12-19 07:46:00,
2013-12-19 02:50:00,24.4,20.0,30.10,West,259,4.0,6.0,83,0.00,,---,0.00,VWS V14.01,2013-12-19 07:50:00,
2013-12-19 02:51:00,24.4,20.0,30.10,West,259,4.0,6.0,83,0.00,,---,0.00,VWS V14.01,2013-12-19 07:51:00,
2013-12-19 02:55:00,24.4,20.0,30.10,SW,232,3.0,7.0,83,0.00,,---,0.00,VWS V14.01,2013-12-19 07:55:00,
2013-12-19 02:56:00,24.4,20.0,30.10,SW,232,3.0,7.0,83,0.00,,---,0.00,VWS V14.01,2013-12-19 07:56:00,
2013-12-19 03:00:00,24.4,19.7,30.09,West,271,1.0,6.0,82,0.00,,---,0.00,VWS V14.01,2013-12-19 08:00:00,
2013-12-19 03:01:00,24.4,19.7,30.09,West,271,1.0,6.0,82,0.00,,---,0.00,VWS V14.01,2013-12-19 08:01:00,
2013-12-19 03:05:00,24.3,19.6,30.09,SW,226,7.0,8.0,82,0.00,,---,0.00,VWS V14.01,2013-12-19 08:05:00,
2013-12-19 03:10:00,24.3,19.6,30.09,SSW,212,2.0,7.0,82,0.00,,---,0.00,VWS V14.01,2013-12-19 08:10:00,
2013-12-19 03:11:00,24.3,19.6,30.09,SSW,212,2.0,7.0,82,0.00,,---,0.00,VWS V14.01,2013-12-19 08:11:00,
2013-12-19 03:15:00,24.3,19.6,30.09,West,271,1.0,11.0,82,0.00,,---,0.00,VWS V14.01,2013-12-19 08:15:00,
2013-12-19 03:16:00,24.3,19.6,30.09,West,271,1.0,11.0,82,0.00,,---,0.00,VWS V14.01,2013-12-19 08:16:00,
2013-12-19 03:20:00,24.3,19.6,30.09,WSW,251,2.0,6.0,82,0.00,,---,0.00,VWS V14.01,2013-12-19 08:20:00,
2013-12-19 03:21:00,24.3,19.6,30.09,WSW,251,2.0,6.0,82,0.00,,---,0.00,VWS V14.01,2013-12-19 08:21:00,
2013-12-19 03:25:00,24.2,19.5,30.09,SW,221,3.0,9.0,82,0.00,,---,0.00,VWS V14.01,2013-12-19 08:25:00,
2013-12-19 03:26:00,24.2,19.5,30.09,SW,221,3.0,9.0,82,0.00,,---,0.00,VWS V14.01,2013-12-19 08:26:00,
2013-12-19 03:30:00,24.2,19.5,30.09,SW,217,5.0,7.0,82,0.00,,---,0.00,VWS V14.01,2013-12-19 08:30:00,
2013-12-19 03:31:00,24.2,19.5,30.09,SW,217,5.0,7.0,82,0.00,,---,0.00,VWS V14.01,2013-12-19 08:31:00,
2013-12-19 03:35:00,24.2,19.5,30.08,SSW,207,6.0,9.0,82,0.00,,---,0.00,VWS V14.01,2013-12-19 08:35:00,
2013-12-19 03:36:00,24.2,19.5,30.08,SSW,207,6.0,9.0,82,0.00,,---,0.00,VWS V14.01,2013-12-19 08:36:00,
2013-12-19 03:40:00,24.1,19.4,30.08,SW,226,8.0,11.0,82,0.00,,---,0.00,VWS V14.01,2013-12-19 08:40:00,
2013-12-19 03:41:00,24.1,19.4,30.08,SW,226,8.0,11.0,82,0.00,,---,0.00,VWS V14.01,2013-12-19 08:41:00,
2013-12-19 03:45:00,24.2,19.2,30.08,SSW,212,6.0,12.0,81,0.00,,---,0.00,VWS V14.01,2013-12-19 08:45:00,
2013-12-19 03:46:00,24.2,19.2,30.08,SSW,212,6.0,12.0,81,0.00,,---,0.00,VWS V14.01,2013-12-19 08:46:00,
2013-12-19 03:50:00,24.1,19.1,30.08,SW,221,5.0,9.0,81,0.00,,---,0.00,VWS V14.01,2013-12-19 08:50:00,
2013-12-19 03:51:00,24.1,19.1,30.08,SW,221,5.0,9.0,81,0.00,,---,0.00,VWS V14.01,2013-12-19 08:51:00,
2013-12-19 03:55:00,24.1,19.1,30.08,SSW,212,5.0,9.0,81,0.00,,---,0.00,VWS V14.01,2013-12-19 08:55:00,
2013-12-19 04:00:00,24.1,19.1,30.08,SSW,201,4.0,8.0,81,0.00,,---,0.00,VWS V14.01,2013-12-19 09:00:00,
2013-12-19 04:01:00,24.1,19.1,30.08,SSW,201,4.0,8.0,81,0.00,,---,0.00,VWS V14.01,2013-12-19 09:01:00,
2013-12-19 04:05:00,24.1,19.1,30.08,SW,218,4.0,7.0,81,0.00,,---,0.00,VWS V14.01,2013-12-19 09:05:00,
2013-12-19 04:06:00,24.1,19.1,30.08,SW,218,4.0,7.0,81,0.00,,---,0.00,VWS V14.01,2013-12-19 09:06:00,
2013-12-19 04:10:00,24.0,19.0,30.08,South,188,4.0,6.0,81,0.00,,---,0.00,VWS V14.01,2013-12-19 09:10:00,
2013-12-19 04:11:00,24.0,19.0,30.08,South,188,4.0,6.0,81,0.00,,---,0.00,VWS V14.01,2013-12-19 09:11:00,
2013-12-19 04:15:00,24.0,19.0,30.08,SW,218,6.0,7.0,81,0.00,,---,0.00,VWS V14.01,2013-12-19 09:15:00,
2013-12-19 04:16:00,24.0,19.0,30.08,SW,218,6.0,7.0,81,0.00,,---,0.00,VWS V14.01,2013-12-19 09:16:00,
2013-12-19 04:20:00,24.0,19.0,30.08,SSW,204,7.0,8.0,81,0.00,,---,0.00,VWS V14.01,2013-12-19 09:20:00,
2013-12-19 04:21:00,24.0,19.0,30.08,SSW,204,7.0,8.0,81,0.00,,---,0.00,VWS V14.01,2013-12-19 09:21:00,
2013-12-19 04:25:00,24.0,19.0,30.08,SSE,166,3.0,7.0,81,0.00,,---,0.00,VWS V14.01,2013-12-19 09:25:00,
2013-12-19 04:26:00,24.0,19.0,30.08,SSE,166,3.0,7.0,81,0.00,,---,0.00,VWS V14.01,2013-12-19 09:26:00,
2013-12-19 04:30:00,23.9,18.9,30.07,South,176,3.0,5.0,81,0.00,,---,0.00,VWS V14.01,2013-12-19 09:30:00,
2013-12-19 04:31:00,23.9,18.9,30.07,South,176,3.0,5.0,81,0.00,,---,0.00,VWS V14.01,2013-12-19 09:31:00,
2013-12-19 04:35:00,23.9,19.2,30.07,South,180,5.0,7.0,82,0.00,,---,0.00,VWS V14.01,2013-12-19 09:35:00,
2013-12-19 04:36:00,23.9,19.2,30.07,South,180,5.0,7.0,82,0.00,,---,0.00,VWS V14.01,2013-12-19 09:36:00,
2013-12-19 04:40:00,23.8,19.1,30.07,SSE,156,2.0,9.0,82,0.00,,---,0.00,VWS V14.01,2013-12-19 09:40:00,
2013-12-19 04:41:00,23.8,19.1,30.07,SSE,156,2.0,9.0,82,0.00,,---,0.00,VWS V14.01,2013-12-19 09:41:00,
2013-12-19 04:45:00,23.8,19.1,30.06,SSE,152,3.0,7.0,82,0.00,,---,0.00,VWS V14.01,2013-12-19 09:45:00,
2013-12-19 04:50:00,23.8,19.1,30.06,SSE,148,5.0,9.0,82,0.00,,---,0.00,VWS V14.01,2013-12-19 09:50:00,
2013-12-19 04:55:00,23.7,19.0,30.06,SE,139,4.0,5.0,82,0.00,,---,0.00,VWS V14.01,2013-12-19 09:55:00,
2013-12-19 05:00:00,23.8,18.8,30.06,SSE,166,6.0,7.0,81,0.00,,---,0.00,VWS V14.01,2013-12-19 10:00:00,
2013-12-19 05:05:00,23.8,18.8,30.06,South,176,7.0,9.0,81,0.00,,---,0.00,VWS V14.01,2013-12-19 10:05:00,
2013-12-19 05:10:00,23.8,18.5,30.06,SSW,201,7.0,10.0,80,0.00,,---,0.00,VWS V14.01,2013-12-19 10:10:00,
2013-12-19 05:15:00,23.9,18.6,30.05,South,185,6.0,10.0,80,0.00,,---,0.00,VWS V14.01,2013-12-19 10:15:00,
2013-12-19 05:20:00,23.9,18.6,30.05,South,179,7.0,10.0,80,0.00,,---,0.00,VWS V14.01,2013-12-19 10:20:00,
2013-12-19 05:25:00,23.8,18.5,30.05,South,180,7.0,9.0,80,0.00,,---,0.00,VWS V14.01,2013-12-19 10:25:00,
2013-12-19 05:30:00,23.7,18.4,30.05,South,175,6.0,9.0,80,0.00,,---,0.00,VWS V14.01,2013-12-19 10:30:00,
2013-12-19 05:35:00,23.6,18.4,30.05,South,173,4.0,9.0,80,0.00,,---,0.00,VWS V14.01,2013-12-19 10:35:00,
2013-12-19 05:40:00,23.5,18.2,30.05,South,172,6.0,9.0,80,0.00,,---,0.00,VWS V14.01,2013-12-19 10:40:00,
2013-12-19 05:45:00,23.4,17.9,30.05,SSE,165,4.0,9.0,79,0.00,,---,0.00,VWS V14.01,2013-12-19 10:45:00,
2013-12-19 05:50:00,23.3,17.8,30.05,SSE,147,3.0,7.0,79,0.00,,---,0.00,VWS V14.01,2013-12-19 10:50:00,
2013-12-19 05:55:00,23.1,17.9,30.04,SE,146,3.0,7.0,80,0.00,,---,0.00,VWS V14.01,2013-12-19 10:55:00,
2013-12-19 05:56:00,23.1,17.9,30.04,SE,146,3.0,7.0,80,0.00,,---,0.00,VWS V14.01,2013-12-19 10:56:00,
2013-12-19 06:00:00,22.9,18.0,30.04,SSE,162,3.0,7.0,81,0.00,,---,0.00,VWS V14.01,2013-12-19 11:00:00,
2013-12-19 06:01:00,22.9,18.0,30.04,SSE,162,3.0,7.0,81,0.00,,---,0.00,VWS V14.01,2013-12-19 11:01:00,
2013-12-19 06:05:00,22.5,17.9,30.04,South,184,4.0,4.0,82,0.00,,---,0.00,VWS V14.01,2013-12-19 11:05:00,
2013-12-19 06:10:00,22.3,17.9,30.04,SSE,154,3.0,6.0,83,0.00,,---,0.00,VWS V14.01,2013-12-19 11:10:00,
2013-12-19 06:11:00,22.3,17.9,30.04,SSE,154,3.0,6.0,83,0.00,,---,0.00,VWS V14.01,2013-12-19 11:11:00,
2013-12-19 06:15:00,22.2,17.5,30.04,SSE,156,3.0,6.0,82,0.00,,---,0.00,VWS V14.01,2013-12-19 11:15:00,
2013-12-19 06:16:00,22.2,17.5,30.04,SSE,156,3.0,6.0,82,0.00,,---,0.00,VWS V14.01,2013-12-19 11:16:00,
2013-12-19 06:20:00,22.2,17.5,30.04,SSW,195,2.0,7.0,82,0.00,,---,0.00,VWS V14.01,2013-12-19 11:20:00,
2013-12-19 06:25:00,22.1,17.2,30.04,South,184,2.0,5.0,81,0.00,,---,0.00,VWS V14.01,2013-12-19 11:25:00,
2013-12-19 06:26:00,22.1,17.2,30.04,South,184,2.0,5.0,81,0.00,,---,0.00,VWS V14.01,2013-12-19 11:26:00,
2013-12-19 06:30:00,22.3,17.4,30.03,SSW,203,5.0,8.0,81,0.00,,---,0.00,VWS V14.01,2013-12-19 11:30:00,
2013-12-19 06:31:00,22.3,17.4,30.03,SSW,203,5.0,8.0,81,0.00,,---,0.00,VWS V14.01,2013-12-19 11:31:00,
2013-12-19 06:35:00,22.4,17.2,30.03,SSE,166,3.0,6.0,80,0.00,,---,0.00,VWS V14.01,2013-12-19 11:35:00,
2013-12-19 06:36:00,22.4,17.2,30.03,SSE,166,3.0,6.0,80,0.00,,---,0.00,VWS V14.01,2013-12-19 11:36:00,
2013-12-19 06:40:00,22.6,17.1,30.03,SSE,167,4.0,10.0,79,0.00,,---,0.00,VWS V14.01,2013-12-19 11:40:00,
2013-12-19 06:41:00,22.6,17.1,30.03,SSE,167,4.0,10.0,79,0.00,,---,0.00,VWS V14.01,2013-12-19 11:41:00,
2013-12-19 06:45:00,22.7,17.2,30.03,SSW,202,4.0,8.0,79,0.00,,---,0.00,VWS V14.01,2013-12-19 11:45:00,
2013-12-19 06:46:00,22.7,17.2,30.03,SSW,202,4.0,8.0,79,0.00,,---,0.00,VWS V14.01,2013-12-19 11:46:00,
2013-12-19 06:50:00,22.7,17.2,30.03,SSW,208,7.0,8.0,79,0.00,,---,0.00,VWS V14.01,2013-12-19 11:50:00,
2013-12-19 06:51:00,22.7,17.2,30.03,SSW,208,7.0,8.0,79,0.00,,---,0.00,VWS V14.01,2013-12-19 11:51:00,
2013-12-19 06:55:00,22.6,17.1,30.03,SSW,200,6.0,8.0,79,0.00,,---,0.00,VWS V14.01,2013-12-19 11:55:00,
2013-12-19 06:56:00,22.6,17.1,30.03,SSW,200,6.0,8.0,79,0.00,,---,0.00,VWS V14.01,2013-12-19 11:56:00,
2013-12-19 07:00:00,22.6,17.1,30.03,SSW,197,6.0,9.0,79,0.00,,---,0.00,VWS V14.01,2013-12-19 12:00:00,
2013-12-19 07:01:00,22.6,17.1,30.03,SSW,197,6.0,9.0,79,0.00,,---,0.00,VWS V14.01,2013-12-19 12:01:00,
2013-12-19 07:05:00,22.8,17.0,30.02,SSW,207,6.0,9.0,78,0.00,,---,0.00,VWS V14.01,2013-12-19 12:05:00,
2013-12-19 07:10:00,23.0,17.2,30.02,SW,225,12.0,12.0,78,0.00,,---,0.00,VWS V14.01,2013-12-19 12:10:00,
2013-12-19 07:11:00,23.0,17.2,30.02,SW,225,12.0,12.0,78,0.00,,---,0.00,VWS V14.01,2013-12-19 12:11:00,
2013-12-19 07:15:00,23.1,17.0,30.02,WSW,238,8.0,12.0,77,0.00,,---,0.00,VWS V14.01,2013-12-19 12:15:00,
2013-12-19 07:16:00,23.1,17.0,30.02,WSW,238,8.0,12.0,77,0.00,,---,0.00,VWS V14.01,2013-12-19 12:16:00,
2013-12-19 07:20:00,23.1,16.7,30.02,SSW,211,5.0,12.0,76,0.00,,---,0.00,VWS V14.01,2013-12-19 12:20:00,
2013-12-19 07:21:00,23.1,16.7,30.02,SSW,211,5.0,12.0,76,0.00,,---,0.00,VWS V14.01,2013-12-19 12:21:00,
2013-12-19 07:25:00,23.2,16.8,30.02,WSW,245,6.0,12.0,76,0.00,,---,0.00,VWS V14.01,2013-12-19 12:25:00,
2013-12-19 07:26:00,23.2,16.8,30.02,WSW,245,6.0,12.0,76,0.00,,---,0.00,VWS V14.01,2013-12-19 12:26:00,
2013-12-19 07:30:00,23.3,16.6,30.02,SSW,210,6.0,11.0,75,0.00,,---,0.00,VWS V14.01,2013-12-19 12:30:00,
2013-12-19 07:35:00,23.5,16.8,30.02,SW,218,4.0,12.0,75,0.00,,---,0.00,VWS V14.01,2013-12-19 12:35:00,
2013-12-19 07:37:00,23.5,16.8,30.02,SW,218,4.0,12.0,75,0.00,,---,0.00,VWS V14.01,2013-12-19 12:37:00,
2013-12-19 07:40:00,23.8,16.7,30.02,WSW,253,4.0,11.0,74,0.00,,---,0.00,VWS V14.01,2013-12-19 12:40:00,
2013-12-19 07:45:00,24.1,16.7,30.02,SW,236,9.0,11.0,73,0.00,,---,0.00,VWS V14.01,2013-12-19 12:45:00,
2013-12-19 07:47:00,24.1,16.7,30.02,SW,236,9.0,11.0,73,0.00,,---,0.00,VWS V14.01,2013-12-19 12:47:00,
2013-12-19 07:50:00,24.6,16.9,30.02,WSW,248,5.0,14.0,72,0.00,,---,0.00,VWS V14.01,2013-12-19 12:50:00,
2013-12-19 07:55:00,24.9,16.8,30.02,SW,214,7.0,11.0,71,0.00,,---,0.00,VWS V14.01,2013-12-19 12:55:00,
2013-12-19 07:56:00,24.9,16.8,30.02,SW,214,7.0,11.0,71,0.00,,---,0.00,VWS V14.01,2013-12-19 12:56:00,
2013-12-19 08:00:00,25.3,16.9,30.02,WSW,245,9.0,13.0,70,0.00,,---,0.00,VWS V14.01,2013-12-19 13:00:00,
2013-12-19 08:02:00,25.3,16.9,30.02,WSW,245,9.0,13.0,70,0.00,,---,0.00,VWS V14.01,2013-12-19 13:02:00,
2013-12-19 08:05:00,25.6,16.9,30.02,SW,228,11.0,15.0,69,0.00,,---,0.00,VWS V14.01,2013-12-19 13:05:00,
2013-12-19 08:10:00,25.9,16.8,30.02,SW,232,10.0,13.0,68,0.00,,---,0.00,VWS V14.01,2013-12-19 13:10:00,
2013-12-19 08:11:00,25.9,16.8,30.02,SW,232,10.0,13.0,68,0.00,,---,0.00,VWS V14.01,2013-12-19 13:11:00,
2013-12-19 08:15:00,26.3,16.9,30.02,WSW,255,6.0,13.0,67,0.00,,---,0.00,VWS V14.01,2013-12-19 13:15:00,
2013-12-19 08:16:00,26.3,16.9,30.02,WSW,255,6.0,13.0,67,0.00,,---,0.00,VWS V14.01,2013-12-19 13:16:00,
2013-12-19 08:20:00,26.6,17.1,30.02,WSW,252,6.0,12.0,67,0.00,,---,0.00,VWS V14.01,2013-12-19 13:20:00,
2013-12-19 08:21:00,26.6,17.1,30.02,WSW,252,6.0,12.0,67,0.00,,---,0.00,VWS V14.01,2013-12-19 13:21:00,
2013-12-19 08:25:00,26.9,17.1,30.03,SW,231,5.0,12.0,66,0.00,,---,0.00,VWS V14.01,2013-12-19 13:25:00,
2013-12-19 08:26:00,26.9,17.1,30.03,SW,231,5.0,12.0,66,0.00,,---,0.00,VWS V14.01,2013-12-19 13:26:00,
2013-12-19 08:30:00,26.9,17.1,30.03,West,259,6.0,11.0,66,0.00,,---,0.00,VWS V14.01,2013-12-19 13:30:00,
2013-12-19 08:31:00,26.9,17.1,30.03,West,259,6.0,11.0,66,0.00,,---,0.00,VWS V14.01,2013-12-19 13:31:00,
2013-12-19 08:35:00,27.2,17.4,30.03,WSW,242,6.0,13.0,66,0.00,,---,0.00,VWS V14.01,2013-12-19 13:35:00,
2013-12-19 08:36:00,27.2,17.4,30.03,WSW,242,6.0,13.0,66,0.00,,---,0.00,VWS V14.01,2013-12-19 13:36:00,
2013-12-19 08:40:00,27.3,17.5,30.03,WSW,243,9.0,14.0,66,0.00,,---,0.00,VWS V14.01,2013-12-19 13:40:00,
2013-12-19 08:41:00,27.3,17.5,30.03,WSW,243,9.0,14.0,66,0.00,,---,0.00,VWS V14.01,2013-12-19 13:41:00,
2013-12-19 08:45:00,27.5,17.6,30.03,WSW,250,7.0,10.0,66,0.00,,---,0.00,VWS V14.01,2013-12-19 13:45:00,
2013-12-19 08:46:00,27.5,17.6,30.03,WSW,250,7.0,10.0,66,0.00,,---,0.00,VWS V14.01,2013-12-19 13:46:00,
2013-12-19 08:50:00,27.7,17.8,30.03,SW,235,6.0,10.0,66,0.00,,---,0.00,VWS V14.01,2013-12-19 13:50:00,
2013-12-19 08:51:00,27.7,17.8,30.03,SW,235,6.0,10.0,66,0.00,,---,0.00,VWS V14.01,2013-12-19 13:51:00,
2013-12-19 08:55:00,27.8,17.9,30.03,West,266,6.0,12.0,66,0.00,,---,0.00,VWS V14.01,2013-12-19 13:55:00,
2013-12-19 09:00:00,28.2,18.3,30.03,WSW,243,6.0,12.0,66,0.00,,---,0.00,VWS V14.01,2013-12-19 14:00:00,
2013-12-19 09:02:00,28.2,18.3,30.03,WSW,243,6.0,12.0,66,0.00,,---,0.00,VWS V14.01,2013-12-19 14:02:00,
2013-12-19 09:05:00,28.3,18.1,30.03,WSW,238,6.0,10.0,65,0.00,,---,0.00,VWS V14.01,2013-12-19 14:05:00,
2013-12-19 09:10:00,28.4,18.1,30.03,WSW,238,7.0,10.0,65,0.00,,---,0.00,VWS V14.01,2013-12-19 14:10:00,
2013-12-19 09:11:00,28.4,18.1,30.03,WSW,238,7.0,10.0,65,0.00,,---,0.00,VWS V14.01,2013-12-19 14:11:00,
2013-12-19 09:15:00,28.5,18.2,30.03,SW,218,5.0,10.0,65,0.00,,---,0.00,VWS V14.01,2013-12-19 14:15:00,
2013-12-19 09:20:00,28.6,18.3,30.03,SW,235,4.0,10.0,65,0.00,,---,0.00,VWS V14.01,2013-12-19 14:20:00,
2013-12-19 09:21:00,28.6,18.3,30.03,SW,235,4.0,10.0,65,0.00,,---,0.00,VWS V14.01,2013-12-19 14:21:00,
2013-12-19 09:25:00,28.6,18.3,30.04,West,266,5.0,11.0,65,0.00,,---,0.00,VWS V14.01,2013-12-19 14:25:00,
2013-12-19 09:26:00,28.6,18.3,30.04,West,266,5.0,11.0,65,0.00,,---,0.00,VWS V14.01,2013-12-19 14:26:00,
2013-12-19 09:30:00,28.6,18.7,30.03,SW,221,3.0,10.0,66,0.00,,---,0.00,VWS V14.01,2013-12-19 14:30:00,
2013-12-19 09:31:00,28.6,18.7,30.03,SW,221,3.0,10.0,66,0.00,,---,0.00,VWS V14.01,2013-12-19 14:31:00,
2013-12-19 09:35:00,28.8,18.9,30.03,SW,226,4.0,9.0,66,0.00,,---,0.00,VWS V14.01,2013-12-19 14:35:00,
2013-12-19 09:36:00,28.8,18.9,30.03,SW,226,4.0,9.0,66,0.00,,---,0.00,VWS V14.01,2013-12-19 14:36:00,
2013-12-19 09:40:00,29.1,19.2,30.03,SW,226,5.0,9.0,66,0.00,,---,0.00,VWS V14.01,2013-12-19 14:40:00,
2013-12-19 09:41:00,29.1,19.2,30.03,SW,226,5.0,9.0,66,0.00,,---,0.00,VWS V14.01,2013-12-19 14:41:00,
2013-12-19 09:45:00,29.4,19.5,30.03,SW,236,6.0,9.0,66,0.00,,---,0.00,VWS V14.01,2013-12-19 14:45:00,
2013-12-19 09:46:00,29.4,19.5,30.03,SW,236,6.0,9.0,66,0.00,,---,0.00,VWS V14.01,2013-12-19 14:46:00,
2013-12-19 09:50:00,29.6,19.3,30.03,SW,229,4.0,9.0,65,0.00,,---,0.00,VWS V14.01,2013-12-19 14:50:00,
2013-12-19 09:51:00,29.6,19.3,30.03,SW,229,4.0,9.0,65,0.00,,---,0.00,VWS V14.01,2013-12-19 14:51:00,
2013-12-19 09:55:00,29.8,19.5,30.03,WNW,285,3.0,9.0,65,0.00,,---,0.00,VWS V14.01,2013-12-19 14:55:00,
2013-12-19 09:56:00,29.8,19.5,30.03,WNW,285,3.0,9.0,65,0.00,,---,0.00,VWS V14.01,2013-12-19 14:56:00,
2013-12-19 10:05:00,30.1,19.8,30.03,WSW,245,6.0,9.0,65,0.00,,---,0.00,VWS V14.01,2013-12-19 15:05:00,
2013-12-19 10:06:00,30.1,19.8,30.03,WSW,245,6.0,9.0,65,0.00,,---,0.00,VWS V14.01,2013-12-19 15:06:00,
2013-12-19 10:10:00,30.3,20.0,30.02,WSW,239,6.0,9.0,65,0.00,,---,0.00,VWS V14.01,2013-12-19 15:10:00,
2013-12-19 10:11:00,30.3,20.0,30.02,WSW,239,6.0,9.0,65,0.00,,---,0.00,VWS V14.01,2013-12-19 15:11:00,
2013-12-19 10:15:00,30.4,20.1,30.03,SW,229,4.0,9.0,65,0.00,,---,0.00,VWS V14.01,2013-12-19 15:15:00,
2013-12-19 10:16:00,30.4,20.1,30.03,SW,229,4.0,9.0,65,0.00,,---,0.00,VWS V14.01,2013-12-19 15:16:00,
2013-12-19 10:20:00,30.5,20.1,30.02,SW,222,8.0,9.0,65,0.00,,---,0.00,VWS V14.01,2013-12-19 15:20:00,
2013-12-19 10:21:00,30.5,20.1,30.02,SW,222,8.0,9.0,65,0.00,,---,0.00,VWS V14.01,2013-12-19 15:21:00,
2013-12-19 10:25:00,30.7,20.3,30.02,WSW,239,7.0,11.0,65,0.00,,---,0.00,VWS V14.01,2013-12-19 15:25:00,
2013-12-19 10:26:00,30.7,20.3,30.02,WSW,239,7.0,11.0,65,0.00,,---,0.00,VWS V14.01,2013-12-19 15:26:00,
2013-12-19 10:30:00,30.9,20.5,30.02,SW,229,3.0,11.0,65,0.00,,---,0.00,VWS V14.01,2013-12-19 15:30:00,
2013-12-19 10:31:00,30.9,20.5,30.02,SW,229,3.0,11.0,65,0.00,,---,0.00,VWS V14.01,2013-12-19 15:31:00,
2013-12-19 10:35:00,31.2,20.8,30.02,WSW,242,4.0,10.0,65,0.00,,---,0.00,VWS V14.01,2013-12-19 15:35:00,
2013-12-19 10:36:00,31.2,20.8,30.02,WSW,242,4.0,10.0,65,0.00,,---,0.00,VWS V14.01,2013-12-19 15:36:00,
2013-12-19 10:40:00,31.5,21.1,30.02,WSW,245,5.0,9.0,65,0.00,,---,0.00,VWS V14.01,2013-12-19 15:40:00,
2013-12-19 10:41:00,31.5,21.1,30.02,WSW,245,5.0,9.0,65,0.00,,---,0.00,VWS V14.01,2013-12-19 15:41:00,
2013-12-19 10:45:00,31.7,21.3,30.02,SW,214,4.0,8.0,65,0.00,,---,0.00,VWS V14.01,2013-12-19 15:45:00,
2013-12-19 10:46:00,31.7,21.3,30.02,SW,214,4.0,8.0,65,0.00,,---,0.00,VWS V14.01,2013-12-19 15:46:00,
2013-12-19 10:50:00,31.9,21.5,30.01,WSW,254,5.0,9.0,65,0.00,,---,0.00,VWS V14.01,2013-12-19 15:50:00,
2013-12-19 10:55:00,32.2,21.4,30.01,SW,229,6.0,8.0,64,0.00,,---,0.00,VWS V14.01,2013-12-19 15:55:00,
2013-12-19 10:56:00,32.2,21.4,30.01,SW,229,6.0,8.0,64,0.00,,---,0.00,VWS V14.01,2013-12-19 15:56:00,
2013-12-19 11:00:00,32.3,21.5,30.01,WSW,242,6.0,7.0,64,0.00,,---,0.00,VWS V14.01,2013-12-19 16:00:00,
2013-12-19 11:02:00,32.3,21.5,30.01,WSW,242,6.0,7.0,64,0.00,,---,0.00,VWS V14.01,2013-12-19 16:02:00,
2013-12-19 11:05:00,32.4,21.6,30.01,SW,226,6.0,8.0,64,0.00,,---,0.00,VWS V14.01,2013-12-19 16:05:00,
2013-12-19 11:10:00,32.8,22.0,30.01,SW,232,5.0,8.0,64,0.00,,---,0.00,VWS V14.01,2013-12-19 16:10:00,
2013-12-19 11:11:00,32.8,22.0,30.01,SW,232,5.0,8.0,64,0.00,,---,0.00,VWS V14.01,2013-12-19 16:11:00,
2013-12-19 11:15:00,33.1,22.3,30.01,West,269,2.0,7.0,64,0.00,,---,0.00,VWS V14.01,2013-12-19 16:15:00,
2013-12-19 11:16:00,33.1,22.3,30.01,West,269,2.0,7.0,64,0.00,,---,0.00,VWS V14.01,2013-12-19 16:16:00,
2013-12-19 11:20:00,33.3,22.5,30.00,West,270,3.0,7.0,64,0.00,,---,0.00,VWS V14.01,2013-12-19 16:20:00,
2013-12-19 11:21:00,33.3,22.5,30.00,West,270,3.0,7.0,64,0.00,,---,0.00,VWS V14.01,2013-12-19 16:21:00,
2013-12-19 11:25:00,33.9,22.6,30.00,West,264,9.0,17.0,63,0.00,,---,0.00,VWS V14.01,2013-12-19 16:25:00,
2013-12-19 11:26:00,33.9,22.6,30.00,West,264,9.0,17.0,63,0.00,,---,0.00,VWS V14.01,2013-12-19 16:26:00,
2013-12-19 11:30:00,34.5,22.8,30.00,West,260,12.0,17.0,62,0.00,,---,0.00,VWS V14.01,2013-12-19 16:30:00,
2013-12-19 11:31:00,34.5,22.8,30.00,West,260,12.0,17.0,62,0.00,,---,0.00,VWS V14.01,2013-12-19 16:31:00,
2013-12-19 11:35:00,34.9,23.2,29.99,West,271,13.0,18.0,62,0.00,,---,0.00,VWS V14.01,2013-12-19 16:35:00,
2013-12-19 11:36:00,34.9,23.2,29.99,West,271,13.0,18.0,62,0.00,,---,0.00,VWS V14.01,2013-12-19 16:36:00,
2013-12-19 11:40:00,35.1,23.0,30.00,West,263,9.0,18.0,61,0.00,,---,0.00,VWS V14.01,2013-12-19 16:40:00,
2013-12-19 11:41:00,35.1,23.0,30.00,West,263,9.0,18.0,61,0.00,,---,0.00,VWS V14.01,2013-12-19 16:41:00,
2013-12-19 11:45:00,35.2,23.1,29.99,West,267,12.0,18.0,61,0.00,,---,0.00,VWS V14.01,2013-12-19 16:45:00,
2013-12-19 11:46:00,35.2,23.1,29.99,West,267,12.0,18.0,61,0.00,,---,0.00,VWS V14.01,2013-12-19 16:46:00,
2013-12-19 11:50:00,35.2,23.1,29.99,West,269,9.0,17.0,61,0.00,,---,0.00,VWS V14.01,2013-12-19 16:50:00,
2013-12-19 11:55:00,35.3,23.2,29.99,WSW,248,6.0,16.0,61,0.00,,---,0.00,VWS V14.01,2013-12-19 16:55:00,
2013-12-19 11:56:00,35.3,23.2,29.99,WSW,248,6.0,16.0,61,0.00,,---,0.00,VWS V14.01,2013-12-19 16:56:00,
2013-12-19 12:00:00,35.6,23.5,29.99,WNW,286,8.0,13.0,61,0.00,,---,0.00,VWS V14.01,2013-12-19 17:00:00,
2013-12-19 12:02:00,35.6,23.5,29.99,WNW,286,8.0,13.0,61,0.00,,---,0.00,VWS V14.01,2013-12-19 17:02:00,
2013-12-19 12:05:00,35.6,23.5,29.99,WNW,285,9.0,13.0,61,0.00,,---,0.00,VWS V14.01,2013-12-19 17:05:00,
2013-12-19 12:10:00,35.8,23.7,29.99,West,270,11.0,15.0,61,0.00,,---,0.00,VWS V14.01,2013-12-19 17:10:00,
2013-12-19 12:11:00,35.8,23.7,29.99,West,270,11.0,15.0,61,0.00,,---,0.00,VWS V14.01,2013-12-19 17:11:00,
2013-12-19 12:15:00,35.8,23.3,29.99,WNW,291,13.0,16.0,60,0.00,,---,0.00,VWS V14.01,2013-12-19 17:15:00,
2013-12-19 12:16:00,35.8,23.3,29.99,WNW,291,13.0,16.0,60,0.00,,---,0.00,VWS V14.01,2013-12-19 17:16:00,
2013-12-19 12:20:00,35.8,23.3,29.99,WSW,256,10.0,20.0,60,0.00,,---,0.00,VWS V14.01,2013-12-19 17:20:00,
2013-12-19 12:21:00,35.8,23.3,29.99,WSW,256,10.0,20.0,60,0.00,,---,0.00,VWS V14.01,2013-12-19 17:21:00,
2013-12-19 12:25:00,35.9,23.8,29.99,West,277,11.0,20.0,61,0.00,,---,0.00,VWS V14.01,2013-12-19 17:25:00,
2013-12-19 12:26:00,35.9,23.8,29.99,West,277,11.0,20.0,61,0.00,,---,0.00,VWS V14.01,2013-12-19 17:26:00,
2013-12-19 12:30:00,36.1,24.0,29.99,West,264,13.0,16.0,61,0.00,,---,0.00,VWS V14.01,2013-12-19 17:30:00,
2013-12-19 12:31:00,36.1,24.0,29.99,West,264,13.0,16.0,61,0.00,,---,0.00,VWS V14.01,2013-12-19 17:31:00,
2013-12-19 12:35:00,36.3,24.2,29.99,WSW,249,8.0,15.0,61,0.00,,---,0.00,VWS V14.01,2013-12-19 17:35:00,
2013-12-19 12:36:00,36.3,24.1,29.99,WSW,249,8.0,15.0,61,0.00,,---,0.00,VWS V14.01,2013-12-19 17:36:00,
2013-12-19 12:40:00,36.4,24.2,29.99,West,281,12.0,17.0,61,0.00,,---,0.00,VWS V14.01,2013-12-19 17:40:00,
2013-12-19 12:41:00,36.4,24.2,29.99,West,281,12.0,17.0,61,0.00,,---,0.00,VWS V14.01,2013-12-19 17:41:00,
2013-12-19 12:45:00,36.6,24.4,29.99,WNW,291,11.0,17.0,61,0.00,,---,0.00,VWS V14.01,2013-12-19 17:45:00,
2013-12-19 12:46:00,36.6,24.4,29.99,WNW,291,11.0,17.0,61,0.00,,---,0.00,VWS V14.01,2013-12-19 17:46:00,
2013-12-19 12:50:00,36.7,24.5,29.98,WNW,300,11.0,17.0,61,0.00,,---,0.00,VWS V14.01,2013-12-19 17:50:00,
2013-12-19 12:55:00,36.8,24.6,29.98,WNW,290,11.0,15.0,61,0.00,,---,0.00,VWS V14.01,2013-12-19 17:55:00,
2013-12-19 12:56:00,36.8,24.6,29.98,WNW,290,11.0,15.0,61,0.00,,---,0.00,VWS V14.01,2013-12-19 17:56:00,
2013-12-19 13:00:00,36.9,24.7,29.98,West,271,11.0,17.0,61,0.00,,---,0.00,VWS V14.01,2013-12-19 18:00:00,
2013-12-19 13:02:00,36.9,24.7,29.98,West,271,11.0,17.0,61,0.00,,---,0.00,VWS V14.01,2013-12-19 18:02:00,
2013-12-19 13:05:00,37.2,25.0,29.98,WNW,283,9.0,17.0,61,0.00,,---,0.00,VWS V14.01,2013-12-19 18:05:00,
2013-12-19 13:10:00,37.3,25.1,29.99,WNW,288,12.0,18.0,61,0.00,,---,0.00,VWS V14.01,2013-12-19 18:10:00,
2013-12-19 13:11:00,37.3,25.1,29.99,WNW,288,12.0,18.0,61,0.00,,---,0.00,VWS V14.01,2013-12-19 18:11:00,
2013-12-19 13:15:00,37.2,25.4,29.99,WNW,286,14.0,18.0,62,0.00,,---,0.00,VWS V14.01,2013-12-19 18:15:00,
2013-12-19 13:16:00,37.2,25.4,29.99,WNW,286,14.0,18.0,62,0.00,,---,0.00,VWS V14.01,2013-12-19 18:16:00,
2013-12-19 13:20:00,37.2,25.4,29.99,WNW,288,6.0,15.0,62,0.00,,---,0.00,VWS V14.01,2013-12-19 18:20:00,
2013-12-19 13:21:00,37.2,25.4,29.99,WNW,288,6.0,15.0,62,0.00,,---,0.00,VWS V14.01,2013-12-19 18:21:00,
2013-12-19 13:25:00,37.2,25.4,29.99,WNW,301,6.0,16.0,62,0.00,,---,0.00,VWS V14.01,2013-12-19 18:25:00,
2013-12-19 13:26:00,37.2,25.4,29.99,WNW,301,6.0,16.0,62,0.00,,---,0.00,VWS V14.01,2013-12-19 18:26:00,
2013-12-19 13:30:00,37.2,25.4,29.99,WNW,292,13.0,17.0,62,0.00,,---,0.00,VWS V14.01,2013-12-19 18:30:00,
2013-12-19 13:31:00,37.2,25.4,29.99,WNW,292,13.0,17.0,62,0.00,,---,0.00,VWS V14.01,2013-12-19 18:31:00,
2013-12-19 13:35:00,37.3,25.9,29.99,West,270,11.0,14.0,63,0.00,,---,0.00,VWS V14.01,2013-12-19 18:35:00,
2013-12-19 13:40:00,37.5,26.1,29.99,WNW,291,5.0,13.0,63,0.00,,---,0.00,VWS V14.01,2013-12-19 18:40:00,
2013-12-19 13:42:00,37.5,26.1,29.99,WNW,291,5.0,13.0,63,0.00,,---,0.00,VWS V14.01,2013-12-19 18:42:00,
2013-12-19 13:45:00,37.6,26.2,29.99,WNW,286,8.0,13.0,63,0.00,,---,0.00,VWS V14.01,2013-12-19 18:45:00,
2013-12-19 13:50:00,37.7,25.9,30.00,West,274,7.0,14.0,62,0.00,,---,0.00,VWS V14.01,2013-12-19 18:50:00,
2013-12-19 13:51:00,37.7,25.9,30.00,West,274,7.0,14.0,62,0.00,,---,0.00,VWS V14.01,2013-12-19 18:51:00,
2013-12-19 13:55:00,37.9,26.1,30.00,WNW,291,14.0,14.0,62,0.00,,---,0.00,VWS V14.01,2013-12-19 18:55:00,
2013-12-19 13:56:00,37.9,26.1,30.00,WNW,291,14.0,14.0,62,0.00,,---,0.00,VWS V14.01,2013-12-19 18:56:00,
2013-12-19 14:00:00,37.8,26.0,30.00,WNW,296,8.0,17.0,62,0.00,,---,0.00,VWS V14.01,2013-12-19 19:00:00,
2013-12-19 14:02:00,37.8,26.0,30.00,WNW,296,8.0,17.0,62,0.00,,---,0.00,VWS V14.01,2013-12-19 19:02:00,
2013-12-19 14:05:00,37.8,26.0,30.00,WNW,290,6.0,13.0,62,0.00,,---,0.00,VWS V14.01,2013-12-19 19:05:00,
2013-12-19 14:10:00,37.8,26.0,29.99,WNW,300,8.0,13.0,62,0.00,,---,0.00,VWS V14.01,2013-12-19 19:10:00,
2013-12-19 14:11:00,37.8,26.0,29.99,WNW,300,8.0,13.0,62,0.00,,---,0.00,VWS V14.01,2013-12-19 19:11:00,
2013-12-19 14:15:00,37.9,26.1,29.99,West,278,6.0,12.0,62,0.00,,---,0.00,VWS V14.01,2013-12-19 19:15:00,
2013-12-19 14:16:00,37.9,26.1,29.99,West,278,6.0,12.0,62,0.00,,---,0.00,VWS V14.01,2013-12-19 19:16:00,
2013-12-19 14:20:00,37.9,26.1,30.00,WNW,285,5.0,12.0,62,0.00,,---,0.00,VWS V14.01,2013-12-19 19:20:00,
2013-12-19 14:21:00,37.9,26.1,30.00,WNW,285,5.0,12.0,62,0.00,,---,0.00,VWS V14.01,2013-12-19 19:21:00,
2013-12-19 14:25:00,37.9,26.1,30.00,WNW,300,4.0,11.0,62,0.00,,---,0.00,VWS V14.01,2013-12-19 19:25:00,
2013-12-19 14:30:00,38.0,26.5,30.00,West,281,8.0,15.0,63,0.00,,---,0.00,VWS V14.01,2013-12-19 19:30:00,
2013-12-19 14:32:00,38.0,26.5,30.00,West,281,8.0,15.0,63,0.00,,---,0.00,VWS V14.01,2013-12-19 19:32:00,
2013-12-19 14:35:00,38.1,26.2,30.00,WNW,298,8.0,15.0,62,0.00,,---,0.00,VWS V14.01,2013-12-19 19:35:00,
2013-12-19 14:40:00,38.2,26.7,30.00,WNW,290,7.0,14.0,63,0.00,,---,0.00,VWS V14.01,2013-12-19 19:40:00,
2013-12-19 14:42:00,38.2,26.7,30.00,WNW,290,7.0,14.0,63,0.00,,---,0.00,VWS V14.01,2013-12-19 19:42:00,
2013-12-19 14:45:00,38.2,26.3,30.00,WNW,288,8.0,18.0,62,0.00,,---,0.00,VWS V14.01,2013-12-19 19:45:00,
2013-12-19 14:50:00,38.1,26.6,30.00,NW,309,9.0,18.0,63,0.00,,---,0.00,VWS V14.01,2013-12-19 19:50:00,
2013-12-19 14:52:00,38.1,26.6,30.00,NW,309,9.0,18.0,63,0.00,,---,0.00,VWS V14.01,2013-12-19 19:52:00,
2013-12-19 14:55:00,38.0,26.5,30.00,West,276,13.0,18.0,63,0.00,,---,0.00,VWS V14.01,2013-12-19 19:55:00,
2013-12-19 15:05:00,37.8,26.7,30.01,WNW,285,12.0,19.0,64,0.00,,---,0.00,VWS V14.01,2013-12-19 20:05:00,
2013-12-19 15:06:00,37.8,26.7,30.01,WNW,285,12.0,19.0,64,0.00,,---,0.00,VWS V14.01,2013-12-19 20:06:00,
2013-12-19 15:10:00,37.6,26.5,30.01,WNW,297,8.0,19.0,64,0.00,,---,0.00,VWS V14.01,2013-12-19 20:10:00,
2013-12-19 15:12:00,37.6,26.5,30.01,WNW,297,8.0,19.0,64,0.00,,---,0.00,VWS V14.01,2013-12-19 20:12:00,
2013-12-19 15:15:00,37.4,26.4,30.01,WNW,288,11.0,17.0,64,0.00,,---,0.00,VWS V14.01,2013-12-19 20:15:00,
2013-12-19 15:20:00,37.2,26.5,30.01,WNW,294,8.0,14.0,65,0.00,,---,0.00,VWS V14.01,2013-12-19 20:20:00,
2013-12-19 15:22:00,37.2,26.5,30.01,WNW,294,8.0,14.0,65,0.00,,---,0.00,VWS V14.01,2013-12-19 20:22:00,
2013-12-19 15:25:00,36.9,26.2,30.01,WNW,294,12.0,14.0,65,0.00,,---,0.00,VWS V14.01,2013-12-19 20:25:00,
2013-12-19 15:35:00,36.5,26.2,30.02,West,278,10.0,16.0,66,0.00,,---,0.00,VWS V14.01,2013-12-19 20:35:00,
2013-12-19 15:36:00,36.5,26.2,30.02,West,278,10.0,16.0,66,0.00,,---,0.00,VWS V14.01,2013-12-19 20:36:00,
2013-12-19 15:40:00,36.3,26.0,30.03,West,260,8.0,11.0,66,0.00,,---,0.00,VWS V14.01,2013-12-19 20:40:00,
2013-12-19 15:41:00,36.3,26.0,30.03,West,260,8.0,11.0,66,0.00,,---,0.00,VWS V14.01,2013-12-19 20:41:00,
2013-12-19 15:45:00,36.3,26.0,30.03,WNW,288,6.0,14.0,66,0.00,,---,0.00,VWS V14.01,2013-12-19 20:45:00,
2013-12-19 15:46:00,36.3,26.0,30.03,WNW,288,6.0,14.0,66,0.00,,---,0.00,VWS V14.01,2013-12-19 20:46:00,
2013-12-19 15:50:00,36.1,26.2,30.03,WNW,294,9.0,10.0,67,0.00,,---,0.00,VWS V14.01,2013-12-19 20:50:00,
2013-12-19 15:51:00,36.1,26.2,30.03,WNW,294,9.0,10.0,67,0.00,,---,0.00,VWS V14.01,2013-12-19 20:51:00,
2013-12-19 15:55:00,36.0,26.1,30.03,WNW,286,5.0,10.0,67,0.00,,---,0.00,VWS V14.01,2013-12-19 20:55:00,
2013-12-19 15:56:00,36.0,26.1,30.03,WNW,286,5.0,10.0,67,0.00,,---,0.00,VWS V14.01,2013-12-19 20:56:00,
2013-12-19 16:01:00,35.8,25.9,30.03,NW,307,7.0,9.0,67,0.00,,---,0.00,VWS V14.01,2013-12-19 21:01:00,
2013-12-19 16:02:00,35.8,25.9,30.03,NW,307,7.0,9.0,67,0.00,,---,0.00,VWS V14.01,2013-12-19 21:02:00,
2013-12-19 16:05:00,35.7,26.2,30.03,WNW,295,4.0,10.0,68,0.00,,---,0.00,VWS V14.01,2013-12-19 21:05:00,
2013-12-19 16:10:00,35.7,26.2,30.04,WNW,290,3.0,9.0,68,0.00,,---,0.00,VWS V14.01,2013-12-19 21:10:00,
2013-12-19 16:11:00,35.7,26.2,30.04,WNW,290,3.0,9.0,68,0.00,,---,0.00,VWS V14.01,2013-12-19 21:11:00,
2013-12-19 16:15:00,35.6,26.1,30.04,WNW,302,5.0,8.0,68,0.00,,---,0.00,VWS V14.01,2013-12-19 21:15:00,
2013-12-19 16:16:00,35.6,26.1,30.04,WNW,302,5.0,8.0,68,0.00,,---,0.00,VWS V14.01,2013-12-19 21:16:00,
2013-12-19 16:20:00,35.5,26.0,30.04,WNW,285,6.0,8.0,68,0.00,,---,0.00,VWS V14.01,2013-12-19 21:20:00,
2013-12-19 16:21:00,35.5,26.0,30.04,WNW,285,6.0,8.0,68,0.00,,---,0.00,VWS V14.01,2013-12-19 21:21:00,
2013-12-19 16:25:00,35.4,25.9,30.05,WSW,245,3.0,9.0,68,0.00,,---,0.00,VWS V14.01,2013-12-19 21:25:00,
2013-12-19 16:30:00,35.3,25.8,30.04,WNW,297,6.0,9.0,68,0.00,,---,0.00,VWS V14.01,2013-12-19 21:30:00,
2013-12-19 16:31:00,35.3,25.8,30.04,WNW,297,6.0,9.0,68,0.00,,---,0.00,VWS V14.01,2013-12-19 21:31:00,
2013-12-19 16:35:00,35.2,26.1,30.05,WNW,301,5.0,9.0,69,0.00,,---,0.00,VWS V14.01,2013-12-19 21:35:00,
2013-12-19 16:40:00,35.0,25.9,30.05,West,281,8.0,11.0,69,0.00,,---,0.00,VWS V14.01,2013-12-19 21:40:00,
2013-12-19 16:41:00,35.0,25.9,30.05,West,281,8.0,11.0,69,0.00,,---,0.00,VWS V14.01,2013-12-19 21:41:00,
2013-12-19 16:45:00,35.0,25.9,30.05,WNW,283,6.0,8.0,69,0.00,,---,0.00,VWS V14.01,2013-12-19 21:45:00,
2013-12-19 16:46:00,35.0,25.9,30.05,WNW,283,6.0,8.0,69,0.00,,---,0.00,VWS V14.01,2013-12-19 21:46:00,
2013-12-19 16:50:00,34.8,26.0,30.06,WNW,288,5.0,6.0,70,0.00,,---,0.00,VWS V14.01,2013-12-19 21:50:00,
2013-12-19 16:51:00,34.8,26.0,30.06,WNW,288,5.0,6.0,70,0.00,,---,0.00,VWS V14.01,2013-12-19 21:51:00,
2013-12-19 16:55:00,34.6,25.8,30.06,West,272,4.0,8.0,70,0.00,,---,0.00,VWS V14.01,2013-12-19 21:55:00,
2013-12-19 16:56:00,34.6,25.8,30.06,West,272,4.0,8.0,70,0.00,,---,0.00,VWS V14.01,2013-12-19 21:56:00,
2013-12-19 17:00:00,34.5,25.7,30.06,WNW,286,8.0,8.0,70,0.00,,---,0.00,VWS V14.01,2013-12-19 22:00:00,
2013-12-19 17:01:00,34.5,25.7,30.06,WNW,286,8.0,8.0,70,0.00,,---,0.00,VWS V14.01,2013-12-19 22:01:00,
2013-12-19 17:05:00,34.6,25.8,30.06,WNW,285,3.0,9.0,70,0.00,,---,0.00,VWS V14.01,2013-12-19 22:05:00,
2013-12-19 17:06:00,34.6,25.8,30.06,WNW,285,3.0,9.0,70,0.00,,---,0.00,VWS V14.01,2013-12-19 22:06:00,
2013-12-19 17:10:00,34.4,25.6,30.06,WNW,292,4.0,7.0,70,0.00,,---,0.00,VWS V14.01,2013-12-19 22:10:00,
2013-12-19 17:11:00,34.4,25.6,30.06,WNW,292,4.0,7.0,70,0.00,,---,0.00,VWS V14.01,2013-12-19 22:11:00,
2013-12-19 17:15:00,34.4,25.6,30.06,WNW,298,6.0,8.0,70,0.00,,---,0.00,VWS V14.01,2013-12-19 22:15:00,
2013-12-19 17:16:00,34.4,25.6,30.06,WNW,298,6.0,8.0,70,0.00,,---,0.00,VWS V14.01,2013-12-19 22:16:00,
2013-12-19 17:20:00,34.3,25.9,30.07,WNW,287,2.0,6.0,71,0.00,,---,0.00,VWS V14.01,2013-12-19 22:20:00,
2013-12-19 17:21:00,34.3,25.9,30.07,WNW,287,2.0,6.0,71,0.00,,---,0.00,VWS V14.01,2013-12-19 22:21:00,
2013-12-19 17:25:00,34.2,25.8,30.06,West,281,3.0,6.0,71,0.00,,---,0.00,VWS V14.01,2013-12-19 22:25:00,
2013-12-19 17:26:00,34.2,25.8,30.06,West,281,3.0,6.0,71,0.00,,---,0.00,VWS V14.01,2013-12-19 22:26:00,
2013-12-19 17:30:00,34.1,25.7,30.06,West,264,2.0,5.0,71,0.00,,---,0.00,VWS V14.01,2013-12-19 22:30:00,
2013-12-19 17:31:00,34.1,25.7,30.06,West,264,2.0,5.0,71,0.00,,---,0.00,VWS V14.01,2013-12-19 22:31:00,
2013-12-19 17:35:00,33.9,25.5,30.07,WNW,296,2.0,6.0,71,0.00,,---,0.00,VWS V14.01,2013-12-19 22:35:00,
2013-12-19 17:36:00,33.9,25.5,30.07,WNW,296,2.0,6.0,71,0.00,,---,0.00,VWS V14.01,2013-12-19 22:36:00,
2013-12-19 17:40:00,33.8,25.4,30.06,West,270,1.0,3.0,71,0.00,,---,0.00,VWS V14.01,2013-12-19 22:40:00,
2013-12-19 17:41:00,33.8,25.4,30.06,West,270,1.0,3.0,71,0.00,,---,0.00,VWS V14.01,2013-12-19 22:41:00,
2013-12-19 17:45:00,33.7,25.6,30.06,West,276,0.0,3.0,72,0.00,,---,0.00,VWS V14.01,2013-12-19 22:45:00,
2013-12-19 17:46:00,33.7,25.6,30.06,West,276,0.0,3.0,72,0.00,,---,0.00,VWS V14.01,2013-12-19 22:46:00,
2013-12-19 17:50:00,33.6,25.5,30.06,WSW,253,1.0,2.0,72,0.00,,---,0.00,VWS V14.01,2013-12-19 22:50:00,
2013-12-19 17:51:00,33.6,25.5,30.06,WSW,253,1.0,2.0,72,0.00,,---,0.00,VWS V14.01,2013-12-19 22:51:00,
2013-12-19 17:55:00,33.6,25.5,30.07,West,274,3.0,3.0,72,0.00,,---,0.00,VWS V14.01,2013-12-19 22:55:00,
2013-12-19 17:56:00,33.6,25.5,30.07,West,274,3.0,3.0,72,0.00,,---,0.00,VWS V14.01,2013-12-19 22:56:00,
2013-12-19 18:00:00,33.7,25.6,30.07,West,270,1.0,4.0,72,0.00,,---,0.00,VWS V14.01,2013-12-19 23:00:00,
2013-12-19 18:05:00,33.6,25.5,30.07,WSW,253,2.0,2.0,72,0.00,,---,0.00,VWS V14.01,2013-12-19 23:05:00,
2013-12-19 18:06:00,33.6,25.5,30.07,WSW,253,2.0,2.0,72,0.00,,---,0.00,VWS V14.01,2013-12-19 23:06:00,
2013-12-19 18:10:00,33.5,25.5,30.08,WNW,285,1.0,3.0,72,0.00,,---,0.00,VWS V14.01,2013-12-19 23:10:00,
2013-12-19 18:15:00,33.5,25.5,30.07,WNW,285,1.0,2.0,72,0.00,,---,0.00,VWS V14.01,2013-12-19 23:15:00,
2013-12-19 18:16:00,33.5,25.5,30.07,WNW,285,1.0,2.0,72,0.00,,---,0.00,VWS V14.01,2013-12-19 23:16:00,
2013-12-19 18:20:00,33.3,25.6,30.07,West,280,2.0,3.0,73,0.00,,---,0.00,VWS V14.01,2013-12-19 23:20:00,
2013-12-19 18:21:00,33.3,25.6,30.07,West,280,2.0,3.0,73,0.00,,---,0.00,VWS V14.01,2013-12-19 23:21:00,
2013-12-19 18:25:00,33.1,25.4,30.08,WNW,284,2.0,3.0,73,0.00,,---,0.00,VWS V14.01,2013-12-19 23:25:00,
2013-12-19 18:26:00,33.1,25.4,30.08,WNW,284,2.0,3.0,73,0.00,,---,0.00,VWS V14.01,2013-12-19 23:26:00,
2013-12-19 18:30:00,33.1,25.4,30.08,WNW,301,1.0,4.0,73,0.00,,---,0.00,VWS V14.01,2013-12-19 23:30:00,
2013-12-19 18:31:00,33.1,25.4,30.08,WNW,301,1.0,4.0,73,0.00,,---,0.00,VWS V14.01,2013-12-19 23:31:00,
2013-12-19 18:35:00,32.9,25.5,30.08,WNW,285,1.0,3.0,74,0.00,,---,0.00,VWS V14.01,2013-12-19 23:35:00,
2013-12-19 18:36:00,32.9,25.5,30.08,WNW,285,1.0,3.0,74,0.00,,---,0.00,VWS V14.01,2013-12-19 23:36:00,
2013-12-19 18:40:00,32.8,25.1,30.08,NW,305,2.0,2.0,73,0.00,,---,0.00,VWS V14.01,2013-12-19 23:40:00,
2013-12-19 18:41:00,32.8,25.1,30.08,NW,305,2.0,2.0,73,0.00,,---,0.00,VWS V14.01,2013-12-19 23:41:00,
2013-12-19 18:45:00,32.9,25.5,30.08,WNW,296,0.0,2.0,74,0.00,,---,0.00,VWS V14.01,2013-12-19 23:45:00,
2013-12-19 18:46:00,32.9,25.5,30.08,WNW,296,0.0,2.0,74,0.00,,---,0.00,VWS V14.01,2013-12-19 23:46:00,
2013-12-19 18:50:00,32.7,25.3,30.08,WNW,293,0.0,2.0,74,0.00,,---,0.00,VWS V14.01,2013-12-19 23:50:00,
2013-12-19 18:51:00,32.7,25.3,30.08,WNW,293,0.0,2.0,74,0.00,,---,0.00,VWS V14.01,2013-12-19 23:51:00,
2013-12-19 18:55:00,32.2,25.2,30.09,WSW,255,0.0,2.0,75,0.00,,---,0.00,VWS V14.01,2013-12-19 23:55:00,
2013-12-19 18:56:00,32.2,25.2,30.09,WSW,255,0.0,2.0,75,0.00,,---,0.00,VWS V14.01,2013-12-19 23:56:00,
2013-12-19 19:00:00,32.4,25.4,30.09,West,263,0.0,3.0,75,0.00,,---,0.00,VWS V14.01,2013-12-20 00:00:00,
2013-12-19 19:01:00,32.4,25.4,30.09,West,263,0.0,3.0,75,0.00,,---,0.00,VWS V14.01,2013-12-20 00:01:00,
2013-12-19 19:05:00,32.9,25.9,30.09,WSW,243,0.0,5.0,75,0.00,,---,0.00,VWS V14.01,2013-12-20 00:05:00,
2013-12-19 19:10:00,33.2,25.8,30.09,WNW,284,2.0,4.0,74,0.00,,---,0.00,VWS V14.01,2013-12-20 00:10:00,
2013-12-19 19:11:00,33.2,25.8,30.09,WNW,284,2.0,4.0,74,0.00,,---,0.00,VWS V14.01,2013-12-20 00:11:00,
2013-12-19 19:15:00,33.4,26.0,30.10,WNW,282,1.0,4.0,74,0.00,,---,0.00,VWS V14.01,2013-12-20 00:15:00,
2013-12-19 19:16:00,33.4,26.0,30.10,WNW,282,1.0,4.0,74,0.00,,---,0.00,VWS V14.01,2013-12-20 00:16:00,
2013-12-19 19:20:00,33.5,26.1,30.10,West,274,2.0,5.0,74,0.00,,---,0.00,VWS V14.01,2013-12-20 00:20:00,
2013-12-19 19:21:00,33.5,26.1,30.10,West,274,2.0,5.0,74,0.00,,---,0.00,VWS V14.01,2013-12-20 00:21:00,
2013-12-19 19:25:00,33.5,26.1,30.10,WSW,256,2.0,5.0,74,0.00,,---,0.00,VWS V14.01,2013-12-20 00:25:00,
2013-12-19 19:26:00,33.5,26.1,30.10,WSW,256,2.0,5.0,74,0.00,,---,0.00,VWS V14.01,2013-12-20 00:26:00,
2013-12-19 19:30:00,33.6,26.2,30.10,WNW,292,3.0,5.0,74,0.00,,---,0.00,VWS V14.01,2013-12-20 00:30:00,
2013-12-19 19:31:00,33.6,26.2,30.10,WNW,292,3.0,5.0,74,0.00,,---,0.00,VWS V14.01,2013-12-20 00:31:00,
2013-12-19 19:35:00,33.9,26.2,30.11,WNW,295,4.0,5.0,73,0.00,,---,0.00,VWS V14.01,2013-12-20 00:35:00,
2013-12-19 19:36:00,33.9,26.2,30.11,WNW,295,4.0,5.0,73,0.00,,---,0.00,VWS V14.01,2013-12-20 00:36:00,
2013-12-19 19:40:00,34.2,26.5,30.11,WNW,288,3.0,6.0,73,0.00,,---,0.00,VWS V14.01,2013-12-20 00:40:00,
2013-12-19 19:41:00,34.2,26.5,30.11,WNW,288,3.0,6.0,73,0.00,,---,0.00,VWS V14.01,2013-12-20 00:41:00,
2013-12-19 19:45:00,34.4,26.7,30.11,NW,312,2.0,6.0,73,0.00,,---,0.00,VWS V14.01,2013-12-20 00:45:00,
2013-12-19 19:46:00,34.4,26.7,30.11,NW,312,2.0,6.0,73,0.00,,---,0.00,VWS V14.01,2013-12-20 00:46:00,
2013-12-19 19:50:00,34.5,26.4,30.10,WNW,296,5.0,6.0,72,0.00,,---,0.00,VWS V14.01,2013-12-20 00:50:00,
2013-12-19 19:51:00,34.5,26.4,30.10,WNW,296,5.0,6.0,72,0.00,,---,0.00,VWS V14.01,2013-12-20 00:51:00,
2013-12-19 19:55:00,34.6,26.5,30.10,NW,317,3.0,5.0,72,0.00,,---,0.00,VWS V14.01,2013-12-20 00:55:00,
2013-12-19 19:56:00,34.6,26.5,30.10,NW,317,3.0,5.0,72,0.00,,---,0.00,VWS V14.01,2013-12-20 00:56:00,
2013-12-19 20:00:00,34.4,26.3,30.10,WNW,295,3.0,5.0,72,0.00,,---,0.00,VWS V14.01,2013-12-20 01:00:00,
2013-12-19 20:01:00,34.4,26.3,30.10,WNW,295,3.0,5.0,72,0.00,,---,0.00,VWS V14.01,2013-12-20 01:01:00,
2013-12-19 20:05:00,34.2,26.5,30.10,WNW,297,4.0,5.0,73,0.00,,---,0.00,VWS V14.01,2013-12-20 01:05:00,
2013-12-19 20:10:00,34.0,26.3,30.10,WNW,302,3.0,4.0,73,0.00,,---,0.00,VWS V14.01,2013-12-20 01:10:00,
2013-12-19 20:11:00,34.0,26.3,30.10,WNW,302,3.0,4.0,73,0.00,,---,0.00,VWS V14.01,2013-12-20 01:11:00,
2013-12-19 20:15:00,33.8,26.1,30.10,WNW,301,2.0,4.0,73,0.00,,---,0.00,VWS V14.01,2013-12-20 01:15:00,
2013-12-19 20:16:00,33.8,26.1,30.10,WNW,301,2.0,4.0,73,0.00,,---,0.00,VWS V14.01,2013-12-20 01:16:00,
2013-12-19 20:20:00,33.5,26.1,30.10,WNW,300,2.0,5.0,74,0.00,,---,0.00,VWS V14.01,2013-12-20 01:20:00,
2013-12-19 20:21:00,33.5,26.1,30.10,WNW,300,2.0,5.0,74,0.00,,---,0.00,VWS V14.01,2013-12-20 01:21:00,
2013-12-19 20:25:00,33.1,26.0,30.11,WNW,295,2.0,4.0,75,0.00,,---,0.00,VWS V14.01,2013-12-20 01:25:00,
2013-12-19 20:26:00,33.1,26.0,30.11,WNW,295,2.0,4.0,75,0.00,,---,0.00,VWS V14.01,2013-12-20 01:26:00,
2013-12-19 20:30:00,33.0,26.0,30.11,NW,305,2.0,4.0,75,0.00,,---,0.00,VWS V14.01,2013-12-20 01:30:00,
2013-12-19 20:31:00,33.0,26.0,30.11,NW,305,2.0,4.0,75,0.00,,---,0.00,VWS V14.01,2013-12-20 01:31:00,
2013-12-19 20:35:00,32.7,25.7,30.11,WNW,288,3.0,3.0,75,0.00,,---,0.00,VWS V14.01,2013-12-20 01:35:00,
2013-12-19 20:36:00,32.7,25.7,30.11,WNW,288,3.0,3.0,75,0.00,,---,0.00,VWS V14.01,2013-12-20 01:36:00,
2013-12-19 20:40:00,33.1,26.0,30.11,WNW,290,3.0,6.0,75,0.00,,---,0.00,VWS V14.01,2013-12-20 01:40:00,
2013-12-19 20:41:00,33.1,26.0,30.11,WNW,290,3.0,6.0,75,0.00,,---,0.00,VWS V14.01,2013-12-20 01:41:00,
2013-12-19 20:45:00,33.7,26.6,30.11,West,281,6.0,6.0,75,0.00,,---,0.00,VWS V14.01,2013-12-20 01:45:00,
2013-12-19 20:46:00,33.7,26.6,30.11,West,281,6.0,6.0,75,0.00,,---,0.00,VWS V14.01,2013-12-20 01:46:00,
2013-12-19 20:50:00,34.1,26.7,30.11,WNW,292,4.0,7.0,74,0.00,,---,0.00,VWS V14.01,2013-12-20 01:50:00,
2013-12-19 20:51:00,34.1,26.7,30.11,WNW,292,4.0,7.0,74,0.00,,---,0.00,VWS V14.01,2013-12-20 01:51:00,
2013-12-19 20:55:00,34.3,26.6,30.11,WNW,295,5.0,7.0,73,0.00,,---,0.00,VWS V14.01,2013-12-20 01:55:00,
2013-12-19 20:56:00,34.3,26.6,30.11,WNW,295,5.0,7.0,73,0.00,,---,0.00,VWS V14.01,2013-12-20 01:56:00,
2013-12-19 21:00:00,34.6,26.9,30.11,WNW,293,3.0,5.0,73,0.00,,---,0.00,VWS V14.01,2013-12-20 02:00:00,
2013-12-19 21:01:00,34.6,26.9,30.11,WNW,293,3.0,5.0,73,0.00,,---,0.00,VWS V14.01,2013-12-20 02:01:00,
2013-12-19 21:05:00,34.7,26.6,30.11,WNW,293,3.0,6.0,72,0.00,,---,0.00,VWS V14.01,2013-12-20 02:05:00,
2013-12-19 21:10:00,34.6,26.5,30.11,WNW,284,4.0,4.0,72,0.00,,---,0.00,VWS V14.01,2013-12-20 02:10:00,
2013-12-19 21:11:00,34.6,26.5,30.11,WNW,284,4.0,4.0,72,0.00,,---,0.00,VWS V14.01,2013-12-20 02:11:00,
2013-12-19 21:15:00,34.6,26.9,30.11,WNW,283,4.0,5.0,73,0.00,,---,0.00,VWS V14.01,2013-12-20 02:15:00,
2013-12-19 21:16:00,34.6,26.9,30.11,WNW,283,4.0,5.0,73,0.00,,---,0.00,VWS V14.01,2013-12-20 02:16:00,
2013-12-19 21:20:00,34.5,26.8,30.11,WNW,294,3.0,5.0,73,0.00,,---,0.00,VWS V14.01,2013-12-20 02:20:00,
2013-12-19 21:21:00,34.5,26.8,30.11,WNW,294,3.0,5.0,73,0.00,,---,0.00,VWS V14.01,2013-12-20 02:21:00,
2013-12-19 21:25:00,34.3,26.6,30.11,WNW,286,4.0,5.0,73,0.00,,---,0.00,VWS V14.01,2013-12-20 02:25:00,
2013-12-19 21:30:00,34.2,26.5,30.11,WNW,291,5.0,6.0,73,0.00,,---,0.00,VWS V14.01,2013-12-20 02:30:00,
2013-12-19 21:31:00,34.2,26.5,30.11,WNW,291,5.0,6.0,73,0.00,,---,0.00,VWS V14.01,2013-12-20 02:31:00,
2013-12-19 21:35:00,33.9,26.5,30.11,WNW,291,3.0,5.0,74,0.00,,---,0.00,VWS V14.01,2013-12-20 02:35:00,
2013-12-19 21:36:00,33.9,26.5,30.11,WNW,291,3.0,5.0,74,0.00,,---,0.00,VWS V14.01,2013-12-20 02:36:00,
2013-12-19 21:40:00,33.6,26.2,30.11,NW,304,3.0,4.0,74,0.00,,---,0.00,VWS V14.01,2013-12-20 02:40:00,
2013-12-19 21:41:00,33.6,26.2,30.11,NW,304,3.0,4.0,74,0.00,,---,0.00,VWS V14.01,2013-12-20 02:41:00,
2013-12-19 21:45:00,33.3,26.2,30.11,WNW,290,2.0,4.0,75,0.00,,---,0.00,VWS V14.01,2013-12-20 02:45:00,
2013-12-19 21:46:00,33.3,26.2,30.11,WNW,290,2.0,4.0,75,0.00,,---,0.00,VWS V14.01,2013-12-20 02:46:00,
2013-12-19 21:50:00,33.3,26.2,30.11,WNW,288,2.0,4.0,75,0.00,,---,0.00,VWS V14.01,2013-12-20 02:50:00,
2013-12-19 21:51:00,33.3,26.2,30.11,WNW,288,2.0,4.0,75,0.00,,---,0.00,VWS V14.01,2013-12-20 02:51:00,
2013-12-19 21:55:00,33.3,26.2,30.11,WNW,290,1.0,3.0,75,0.00,,---,0.00,VWS V14.01,2013-12-20 02:55:00,
2013-12-19 21:56:00,33.3,26.2,30.11,WNW,290,1.0,3.0,75,0.00,,---,0.00,VWS V14.01,2013-12-20 02:56:00,
2013-12-19 22:00:00,33.5,26.4,30.11,WNW,291,0.0,1.0,75,0.00,,---,0.00,VWS V14.01,2013-12-20 03:00:00,
2013-12-19 22:01:00,33.5,26.4,30.11,WNW,291,0.0,1.0,75,0.00,,---,0.00,VWS V14.01,2013-12-20 03:01:00,
2013-12-19 22:05:00,33.0,26.0,30.11,NE,46,0.0,1.0,75,0.00,,---,0.00,VWS V14.01,2013-12-20 03:05:00,
2013-12-19 22:10:00,32.0,25.3,30.11,East,86,1.0,1.0,76,0.00,,---,0.00,VWS V14.01,2013-12-20 03:10:00,
2013-12-19 22:11:00,32.0,25.3,30.11,East,86,1.0,1.0,76,0.00,,---,0.00,VWS V14.01,2013-12-20 03:11:00,
2013-12-19 22:15:00,31.3,25.2,30.11,East,87,0.0,1.0,78,0.00,,---,0.00,VWS V14.01,2013-12-20 03:15:00,
2013-12-19 22:16:00,31.3,25.2,30.11,East,87,0.0,1.0,78,0.00,,---,0.00,VWS V14.01,2013-12-20 03:16:00,
2013-12-19 22:20:00,31.4,25.6,30.11,East,86,0.0,1.0,79,0.00,,---,0.00,VWS V14.01,2013-12-20 03:20:00,
2013-12-19 22:21:00,31.4,25.6,30.11,East,86,0.0,1.0,79,0.00,,---,0.00,VWS V14.01,2013-12-20 03:21:00,
2013-12-19 22:25:00,31.7,25.9,30.11,East,89,0.0,1.0,79,0.00,,---,0.00,VWS V14.01,2013-12-20 03:25:00,
2013-12-19 22:26:00,31.7,25.9,30.11,East,89,0.0,1.0,79,0.00,,---,0.00,VWS V14.01,2013-12-20 03:26:00,
2013-12-19 22:30:00,31.6,25.9,30.10,East,88,0.0,2.0,79,0.00,,---,0.00,VWS V14.01,2013-12-20 03:30:00,
2013-12-19 22:31:00,31.6,25.9,30.10,East,88,0.0,2.0,79,0.00,,---,0.00,VWS V14.01,2013-12-20 03:31:00,
2013-12-19 22:35:00,30.9,25.5,30.10,East,88,0.0,1.0,80,0.00,,---,0.00,VWS V14.01,2013-12-20 03:35:00,
2013-12-19 22:36:00,30.9,25.5,30.10,East,88,0.0,1.0,80,0.00,,---,0.00,VWS V14.01,2013-12-20 03:36:00,
2013-12-19 22:40:00,30.8,25.7,30.10,East,88,0.0,1.0,81,0.00,,---,0.00,VWS V14.01,2013-12-20 03:40:00,
2013-12-19 22:41:00,30.8,25.7,30.10,East,88,0.0,1.0,81,0.00,,---,0.00,VWS V14.01,2013-12-20 03:41:00,
2013-12-19 22:45:00,31.2,25.8,30.11,East,88,0.0,1.0,80,0.00,,---,0.00,VWS V14.01,2013-12-20 03:45:00,
2013-12-19 22:46:00,31.2,25.8,30.11,East,88,0.0,1.0,80,0.00,,---,0.00,VWS V14.01,2013-12-20 03:46:00,
2013-12-19 22:50:00,31.7,26.2,30.10,WNW,282,0.0,1.0,80,0.00,,---,0.00,VWS V14.01,2013-12-20 03:50:00,
2013-12-19 22:51:00,31.7,26.2,30.10,WNW,282,0.0,1.0,80,0.00,,---,0.00,VWS V14.01,2013-12-20 03:51:00,
2013-12-19 22:55:00,32.5,26.4,30.10,WSW,245,0.0,2.0,78,0.00,,---,0.00,VWS V14.01,2013-12-20 03:55:00,
2013-12-19 23:00:00,33.3,26.9,30.10,WSW,246,2.0,5.0,77,0.00,,---,0.00,VWS V14.01,2013-12-20 04:00:00,
2013-12-19 23:05:00,34.0,27.2,30.10,West,280,3.0,5.0,76,0.00,,---,0.00,VWS V14.01,2013-12-20 04:05:00,
2013-12-19 23:06:00,34.0,27.2,30.10,West,280,3.0,5.0,76,0.00,,---,0.00,VWS V14.01,2013-12-20 04:06:00,
2013-12-19 23:10:00,34.5,27.4,30.10,WSW,238,3.0,5.0,75,0.00,,---,0.00,VWS V14.01,2013-12-20 04:10:00,
2013-12-19 23:11:00,34.5,27.4,30.10,WSW,238,3.0,5.0,75,0.00,,---,0.00,VWS V14.01,2013-12-20 04:11:00,
2013-12-19 23:15:00,34.8,27.4,30.10,SW,231,1.0,6.0,74,0.00,,---,0.00,VWS V14.01,2013-12-20 04:15:00,
2013-12-19 23:16:00,34.8,27.4,30.10,SW,231,1.0,6.0,74,0.00,,---,0.00,VWS V14.01,2013-12-20 04:16:00,
2013-12-19 23:20:00,34.9,27.5,30.10,SW,217,2.0,4.0,74,0.00,,---,0.00,VWS V14.01,2013-12-20 04:20:00,
2013-12-19 23:21:00,34.9,27.5,30.10,SW,217,2.0,4.0,74,0.00,,---,0.00,VWS V14.01,2013-12-20 04:21:00,
2013-12-19 23:25:00,34.8,27.4,30.11,SW,226,1.0,5.0,74,0.00,,---,0.00,VWS V14.01,2013-12-20 04:25:00,
2013-12-19 23:26:00,34.8,27.4,30.11,SW,226,1.0,5.0,74,0.00,,---,0.00,VWS V14.01,2013-12-20 04:26:00,
2013-12-19 23:30:00,34.6,27.2,30.11,SW,226,4.0,4.0,74,0.00,,---,0.00,VWS V14.01,2013-12-20 04:30:00,
2013-12-19 23:31:00,34.6,27.2,30.11,SW,226,4.0,4.0,74,0.00,,---,0.00,VWS V14.01,2013-12-20 04:31:00,
2013-12-19 23:35:00,34.6,27.2,30.11,SW,222,2.0,4.0,74,0.00,,---,0.00,VWS V14.01,2013-12-20 04:35:00,
2013-12-19 23:36:00,34.6,27.2,30.11,SW,222,2.0,4.0,74,0.00,,---,0.00,VWS V14.01,2013-12-20 04:36:00,
2013-12-19 23:40:00,34.5,27.1,30.11,SSW,212,2.0,5.0,74,0.00,,---,0.00,VWS V14.01,2013-12-20 04:40:00,
2013-12-19 23:41:00,34.5,27.1,30.11,SSW,212,2.0,5.0,74,0.00,,---,0.00,VWS V14.01,2013-12-20 04:41:00,
2013-12-19 23:45:00,34.5,27.1,30.10,SSW,195,2.0,5.0,74,0.00,,---,0.00,VWS V14.01,2013-12-20 04:45:00,
2013-12-19 23:46:00,34.5,27.1,30.10,SSW,195,2.0,5.0,74,0.00,,---,0.00,VWS V14.01,2013-12-20 04:46:00,
2013-12-19 23:50:00,34.5,27.1,30.10,SSE,167,2.0,5.0,74,0.00,,---,0.00,VWS V14.01,2013-12-20 04:50:00,
2013-12-19 23:51:00,34.5,27.1,30.10,SSE,167,2.0,5.0,74,0.00,,---,0.00,VWS V14.01,2013-12-20 04:51:00,
2013-12-19 23:55:00,34.4,27.0,30.10,SSW,203,2.0,4.0,74,0.00,,---,0.00,VWS V14.01,2013-12-20 04:55:00,
2013-12-19 23:56:00,34.4,27.0,30.10,SSW,203,2.0,4.0,74,0.00,,---,0.00,VWS V14.01,2013-12-20 04:56:00,